Time,TemperatureF,DewpointF,PressureIn,WindDirection,WindDirectionDegrees,WindSpeedMPH,WindSpeedGustMPH,Humidity,HourlyPrecipIn,Conditions,Clouds,dailyrainin,SoftwareType,DateUTC
2013-03-01 00:00:00,42.7,37.6,29.69,WNW,303,17.0,17.0,82,0.00,,,0.12,Wunderground v.1.15,2013-03-01 05:00:00,
2013-03-01 00:01:00,42.7,37.6,29.69,NW,304,15.0,18.0,82,0.00,,,0.12,Wunderground v.1.15,2013-03-01 05:01:00,
2013-03-01 00:03:00,42.7,37.3,29.69,NW,304,15.0,18.0,81,0.00,,,0.12,Wunderground v.1.15,2013-03-01 05:03:00,
2013-03-01 00:07:00,42.7,37.6,29.69,WNW,303,15.0,18.0,82,0.00,,,0.12,Wunderground v.1.15,2013-03-01 05:07:00,
2013-03-01 00:13:00,42.7,37.6,29.69,NW,307,14.0,16.0,82,0.00,,,0.12,Wunderground v.1.15,2013-03-01 05:13:00,
2013-03-01 00:18:00,42.6,37.5,29.69,WNW,302,14.0,17.0,82,0.00,,,0.00,Wunderground v.1.15,2013-03-01 05:18:00,
2013-03-01 00:24:00,42.6,37.5,29.69,WNW,299,12.0,14.0,82,0.00,,,0.00,Wunderground v.1.15,2013-03-01 05:24:00,
2013-03-01 00:29:00,42.6,37.5,29.69,WNW,296,12.0,14.0,82,0.00,,,0.00,Wunderground v.1.15,2013-03-01 05:29:00,
2013-03-01 00:35:00,42.6,37.5,29.70,WNW,303,17.0,17.0,82,0.00,,,0.00,Wunderground v.1.15,2013-03-01 05:35:00,
2013-03-01 00:40:00,42.6,37.2,29.70,WNW,299,15.0,15.0,81,0.00,,,0.00,Wunderground v.1.15,2013-03-01 05:40:00,
2013-03-01 00:46:00,42.7,37.3,29.70,WNW,302,14.0,16.0,81,0.00,,,0.00,Wunderground v.1.15,2013-03-01 05:46:00,
2013-03-01 00:52:00,42.6,37.5,29.70,WNW,300,12.0,13.0,82,0.00,,,0.00,Wunderground v.1.15,2013-03-01 05:52:00,
2013-03-01 00:58:00,42.6,37.5,29.70,WNW,299,11.0,14.0,82,0.00,,,0.00,Wunderground v.1.15,2013-03-01 05:58:00,
2013-03-01 01:03:00,42.5,37.4,29.71,WNW,294,14.0,15.0,82,0.00,,,0.00,Wunderground v.1.15,2013-03-01 06:03:00,
2013-03-01 01:09:00,42.6,37.5,29.70,NW,306,12.0,15.0,82,0.00,,,0.00,Wunderground v.1.15,2013-03-01 06:09:00,
2013-03-01 01:15:00,42.6,37.5,29.71,WNW,302,9.0,13.0,82,0.00,,,0.00,Wunderground v.1.15,2013-03-01 06:15:00,
2013-03-01 01:21:00,42.5,37.7,29.71,WNW,302,14.0,14.0,83,0.00,,,0.00,Wunderground v.1.15,2013-03-01 06:21:00,
2013-03-01 01:26:00,42.5,37.7,29.70,WNW,300,14.0,14.0,83,0.00,,,0.00,Wunderground v.1.15,2013-03-01 06:26:00,
2013-03-01 01:32:00,42.4,37.6,29.70,WNW,298,14.0,14.0,83,0.00,,,0.00,Wunderground v.1.15,2013-03-01 06:32:00,
2013-03-01 01:37:00,42.4,37.6,29.71,WNW,300,12.0,14.0,83,0.00,,,0.00,Wunderground v.1.15,2013-03-01 06:37:00,
2013-03-01 01:43:00,42.3,37.5,29.71,WNW,296,11.0,14.0,83,0.00,,,0.00,Wunderground v.1.15,2013-03-01 06:43:00,
2013-03-01 01:48:00,42.3,37.8,29.71,NW,304,15.0,15.0,84,0.00,,,0.00,Wunderground v.1.15,2013-03-01 06:48:00,
2013-03-01 01:54:00,42.3,37.8,29.71,WNW,299,12.0,14.0,84,0.00,,,0.00,Wunderground v.1.15,2013-03-01 06:54:00,
2013-03-01 02:00:00,42.3,37.5,29.71,WNW,291,14.0,14.0,83,0.00,,,0.00,Wunderground v.1.15,2013-03-01 07:00:00,
2013-03-01 02:05:00,42.3,37.5,29.71,WNW,294,13.0,17.0,83,0.00,,,0.00,Wunderground v.1.15,2013-03-01 07:05:00,
2013-03-01 02:10:00,42.2,37.7,29.71,WNW,300,14.0,14.0,84,0.00,,,0.00,Wunderground v.1.15,2013-03-01 07:10:00,
2013-03-01 02:15:00,42.2,37.7,29.70,NW,304,13.0,16.0,84,0.00,,,0.00,Wunderground v.1.15,2013-03-01 07:15:00,
2013-03-01 02:20:00,42.2,37.7,29.71,WNW,302,13.0,14.0,84,0.00,,,0.00,Wunderground v.1.15,2013-03-01 07:20:00,
2013-03-01 02:25:00,42.1,37.6,29.70,NW,310,12.0,15.0,84,0.00,,,0.00,Wunderground v.1.15,2013-03-01 07:25:00,
2013-03-01 02:30:00,42.0,37.5,29.70,NW,306,14.0,15.0,84,0.00,,,0.00,Wunderground v.1.15,2013-03-01 07:30:00,
2013-03-01 02:35:00,42.1,37.9,29.71,NW,306,11.0,15.0,85,0.00,,,0.00,Wunderground v.1.15,2013-03-01 07:35:00,
2013-03-01 02:40:00,42.0,37.8,29.71,WNW,300,12.0,13.0,85,0.00,,,0.00,Wunderground v.1.15,2013-03-01 07:40:00,
2013-03-01 02:45:00,42.0,37.8,29.71,NW,306,13.0,16.0,85,0.00,,,0.00,Wunderground v.1.15,2013-03-01 07:45:00,
2013-03-01 02:50:00,42.0,37.8,29.71,NW,304,13.0,13.0,85,0.00,,,0.00,Wunderground v.1.15,2013-03-01 07:50:00,
2013-03-01 02:55:00,42.0,37.8,29.71,NW,309,15.0,17.0,85,0.00,,,0.00,Wunderground v.1.15,2013-03-01 07:55:00,
2013-03-01 03:00:00,42.0,37.8,29.71,NW,313,14.0,16.0,85,0.00,,,0.00,Wunderground v.1.15,2013-03-01 08:00:00,
2013-03-01 03:05:00,42.0,37.8,29.71,NW,305,13.0,16.0,85,0.00,,,0.00,Wunderground v.1.15,2013-03-01 08:05:00,
2013-03-01 03:10:00,42.0,37.8,29.71,NW,315,13.0,14.0,85,0.00,,,0.00,Wunderground v.1.15,2013-03-01 08:10:00,
2013-03-01 03:15:00,42.0,37.8,29.72,NW,307,10.0,16.0,85,0.00,,,0.00,Wunderground v.1.15,2013-03-01 08:15:00,
2013-03-01 03:20:00,42.0,37.8,29.72,WNW,302,13.0,13.0,85,0.00,,,0.00,Wunderground v.1.15,2013-03-01 08:20:00,
2013-03-01 03:25:00,42.0,37.8,29.72,NW,306,12.0,15.0,85,0.00,,,0.00,Wunderground v.1.15,2013-03-01 08:25:00,
2013-03-01 03:30:00,42.0,37.8,29.72,WNW,302,12.0,14.0,85,0.00,,,0.00,Wunderground v.1.15,2013-03-01 08:30:00,
2013-03-01 03:35:00,42.0,37.8,29.72,NW,306,14.0,15.0,85,0.00,,,0.00,Wunderground v.1.15,2013-03-01 08:35:00,
2013-03-01 03:40:00,41.9,37.7,29.72,NW,313,14.0,14.0,85,0.00,,,0.00,Wunderground v.1.15,2013-03-01 08:40:00,
2013-03-01 03:45:00,41.9,37.7,29.71,NW,313,15.0,16.0,85,0.00,,,0.00,Wunderground v.1.15,2013-03-01 08:45:00,
2013-03-01 03:50:00,41.9,37.7,29.72,NW,314,16.0,16.0,85,0.00,,,0.00,Wunderground v.1.15,2013-03-01 08:50:00,
2013-03-01 03:55:00,42.0,37.8,29.71,NW,314,13.0,18.0,85,0.00,,,0.00,Wunderground v.1.15,2013-03-01 08:55:00,
2013-03-01 04:00:00,41.9,37.7,29.72,NW,318,13.0,15.0,85,0.00,,,0.00,Wunderground v.1.15,2013-03-01 09:00:00,
2013-03-01 04:05:00,41.9,37.4,29.72,NW,321,14.0,16.0,84,0.00,,,0.00,Wunderground v.1.15,2013-03-01 09:05:00,
2013-03-01 04:10:00,42.0,37.8,29.72,NW,311,13.0,14.0,85,0.00,,,0.00,Wunderground v.1.15,2013-03-01 09:10:00,
2013-03-01 04:15:00,42.0,37.8,29.72,NW,317,12.0,17.0,85,0.00,,,0.00,Wunderground v.1.15,2013-03-01 09:15:00,
2013-03-01 04:20:00,41.9,37.4,29.72,NW,320,14.0,16.0,84,0.00,,,0.00,Wunderground v.1.15,2013-03-01 09:20:00,
2013-03-01 04:25:00,41.9,37.7,29.72,NW,319,14.0,16.0,85,0.00,,,0.00,Wunderground v.1.15,2013-03-01 09:25:00,
2013-03-01 04:30:00,41.9,37.7,29.72,NW,315,14.0,15.0,85,0.00,,,0.00,Wunderground v.1.15,2013-03-01 09:30:00,
2013-03-01 04:35:00,41.9,37.4,29.72,NW,318,14.0,16.0,84,0.00,,,0.00,Wunderground v.1.15,2013-03-01 09:35:00,
2013-03-01 04:40:00,41.9,37.7,29.72,NW,319,13.0,14.0,85,0.00,,,0.00,Wunderground v.1.15,2013-03-01 09:40:00,
2013-03-01 04:45:00,41.8,37.6,29.72,NW,315,14.0,15.0,85,0.00,,,0.00,Wunderground v.1.15,2013-03-01 09:45:00,
2013-03-01 04:50:00,41.8,37.6,29.72,NW,325,12.0,14.0,85,0.00,,,0.00,Wunderground v.1.15,2013-03-01 09:50:00,
2013-03-01 04:55:00,41.8,37.6,29.72,NW,321,13.0,14.0,85,0.00,,,0.00,Wunderground v.1.15,2013-03-01 09:55:00,
2013-03-01 05:00:00,41.9,37.7,29.72,NW,319,12.0,13.0,85,0.00,,,0.00,Wunderground v.1.15,2013-03-01 10:00:00,
2013-03-01 05:05:00,41.8,37.6,29.72,NW,314,13.0,16.0,85,0.00,,,0.00,Wunderground v.1.15,2013-03-01 10:05:00,
2013-03-01 05:10:00,41.8,37.3,29.73,NW,319,11.0,13.0,84,0.00,,,0.00,Wunderground v.1.15,2013-03-01 10:10:00,
2013-03-01 05:15:00,41.8,37.6,29.73,NW,326,16.0,18.0,85,0.00,,,0.00,Wunderground v.1.15,2013-03-01 10:15:00,
2013-03-01 05:20:00,41.8,37.6,29.72,NNW,327,15.0,18.0,85,0.00,,,0.00,Wunderground v.1.15,2013-03-01 10:20:00,
2013-03-01 05:25:00,41.7,37.5,29.72,NW,321,14.0,19.0,85,0.00,,,0.00,Wunderground v.1.15,2013-03-01 10:25:00,
2013-03-01 05:30:00,41.7,37.5,29.73,NW,324,16.0,16.0,85,0.00,,,0.00,Wunderground v.1.15,2013-03-01 10:30:00,
2013-03-01 05:35:00,41.7,37.2,29.73,NW,317,12.0,17.0,84,0.00,,,0.00,Wunderground v.1.15,2013-03-01 10:35:00,
2013-03-01 05:40:00,41.6,37.1,29.73,NW,314,15.0,15.0,84,0.00,,,0.00,Wunderground v.1.15,2013-03-01 10:40:00,
2013-03-01 05:45:00,41.6,37.1,29.73,NW,321,16.0,18.0,84,0.00,,,0.00,Wunderground v.1.15,2013-03-01 10:45:00,
2013-03-01 05:50:00,41.6,37.1,29.73,NNW,328,14.0,18.0,84,0.00,,,0.00,Wunderground v.1.15,2013-03-01 10:50:00,
2013-03-01 05:55:00,41.5,37.3,29.73,NW,318,15.0,18.0,85,0.00,,,0.00,Wunderground v.1.15,2013-03-01 10:55:00,
2013-03-01 06:00:00,41.5,37.0,29.73,NW,310,13.0,15.0,84,0.00,,,0.00,Wunderground v.1.15,2013-03-01 11:00:00,
2013-03-01 06:05:00,41.4,37.2,29.73,NW,313,13.0,16.0,85,0.00,,,0.00,Wunderground v.1.15,2013-03-01 11:05:00,
2013-03-01 06:10:00,41.3,37.1,29.74,NW,314,14.0,15.0,85,0.00,,,0.00,Wunderground v.1.15,2013-03-01 11:10:00,
2013-03-01 06:15:00,41.3,37.1,29.74,NW,311,14.0,15.0,85,0.00,,,0.00,Wunderground v.1.15,2013-03-01 11:15:00,
2013-03-01 06:20:00,41.3,37.1,29.74,NW,319,11.0,13.0,85,0.00,,,0.00,Wunderground v.1.15,2013-03-01 11:20:00,
2013-03-01 06:25:00,41.2,37.0,29.74,NW,316,12.0,15.0,85,0.00,,,0.00,Wunderground v.1.15,2013-03-01 11:25:00,
2013-03-01 06:30:00,41.2,37.3,29.74,NW,309,12.0,14.0,86,0.00,,,0.00,Wunderground v.1.15,2013-03-01 11:30:00,
2013-03-01 06:36:00,41.2,37.3,29.74,NW,316,14.0,15.0,86,0.00,,,0.00,Wunderground v.1.15,2013-03-01 11:36:00,
2013-03-01 06:41:00,41.1,37.2,29.74,NW,311,14.0,15.0,86,0.00,,,0.00,Wunderground v.1.15,2013-03-01 11:41:00,
2013-03-01 06:46:00,41.1,37.2,29.74,NW,317,12.0,15.0,86,0.00,,,0.00,Wunderground v.1.15,2013-03-01 11:46:00,
2013-03-01 06:51:00,41.1,37.2,29.75,NW,314,12.0,15.0,86,0.00,,,0.00,Wunderground v.1.15,2013-03-01 11:51:00,
2013-03-01 06:56:00,41.1,37.2,29.75,NW,315,13.0,15.0,86,0.00,,,0.00,Wunderground v.1.15,2013-03-01 11:56:00,
2013-03-01 07:01:00,41.1,37.2,29.75,NW,313,12.0,14.0,86,0.00,,,0.00,Wunderground v.1.15,2013-03-01 12:01:00,
2013-03-01 07:06:00,41.1,37.2,29.75,NW,312,13.0,16.0,86,0.00,,,0.00,Wunderground v.1.15,2013-03-01 12:06:00,
2013-03-01 07:11:00,41.1,37.2,29.75,NW,311,14.0,16.0,86,0.00,,,0.00,Wunderground v.1.15,2013-03-01 12:11:00,
2013-03-01 07:16:00,41.1,37.2,29.75,NW,313,14.0,16.0,86,0.00,,,0.00,Wunderground v.1.15,2013-03-01 12:16:00,
2013-03-01 07:21:00,41.1,36.9,29.76,NW,304,14.0,16.0,85,0.00,,,0.00,Wunderground v.1.15,2013-03-01 12:21:00,
2013-03-01 07:26:00,41.1,36.9,29.76,NW,315,15.0,17.0,85,0.00,,,0.00,Wunderground v.1.15,2013-03-01 12:26:00,
2013-03-01 07:31:00,41.2,37.0,29.76,NW,319,14.0,16.0,85,0.00,,,0.00,Wunderground v.1.15,2013-03-01 12:31:00,
2013-03-01 07:36:00,41.2,37.0,29.76,NW,317,14.0,16.0,85,0.00,,,0.00,Wunderground v.1.15,2013-03-01 12:36:00,
2013-03-01 07:41:00,41.2,37.0,29.77,NW,320,11.0,15.0,85,0.00,,,0.00,Wunderground v.1.15,2013-03-01 12:41:00,
2013-03-01 07:47:00,41.2,37.0,29.77,NW,313,11.0,15.0,85,0.00,,,0.00,Wunderground v.1.15,2013-03-01 12:47:00,
2013-03-01 07:51:00,41.2,37.0,29.77,NW,309,12.0,14.0,85,0.00,,,0.00,Wunderground v.1.15,2013-03-01 12:51:00,
2013-03-01 07:57:00,41.2,37.0,29.77,NW,308,13.0,15.0,85,0.00,,,0.00,Wunderground v.1.15,2013-03-01 12:57:00,
2013-03-01 08:02:00,41.3,37.1,29.77,NW,310,13.0,15.0,85,0.00,,,0.00,Wunderground v.1.15,2013-03-01 13:02:00,
2013-03-01 08:07:00,41.4,37.2,29.78,NW,309,11.0,15.0,85,0.00,,,0.00,Wunderground v.1.15,2013-03-01 13:07:00,
2013-03-01 08:11:00,41.4,37.2,29.78,NW,314,14.0,16.0,85,0.00,,,0.00,Wunderground v.1.15,2013-03-01 13:11:00,
2013-03-01 08:16:00,41.5,37.3,29.78,NW,311,14.0,16.0,85,0.00,,,0.00,Wunderground v.1.15,2013-03-01 13:16:00,
2013-03-01 08:21:00,41.6,37.1,29.78,NW,313,14.0,17.0,84,0.00,,,0.00,Wunderground v.1.15,2013-03-01 13:21:00,
2013-03-01 08:26:00,41.7,37.2,29.78,NW,304,12.0,17.0,84,0.00,,,0.00,Wunderground v.1.15,2013-03-01 13:26:00,
2013-03-01 08:32:00,41.8,37.3,29.79,NW,310,13.0,15.0,84,0.00,,,0.00,Wunderground v.1.15,2013-03-01 13:32:00,
2013-03-01 08:37:00,41.8,37.3,29.79,NW,315,14.0,15.0,84,0.00,,,0.00,Wunderground v.1.15,2013-03-01 13:37:00,
2013-03-01 08:42:00,41.8,37.3,29.79,NW,313,12.0,15.0,84,0.00,,,0.00,Wunderground v.1.15,2013-03-01 13:42:00,
2013-03-01 08:47:00,41.9,37.4,29.78,NW,309,13.0,17.0,84,0.00,,,0.00,Wunderground v.1.15,2013-03-01 13:47:00,
2013-03-01 08:53:00,41.9,37.4,29.78,NW,317,15.0,16.0,84,0.00,,,0.00,Wunderground v.1.15,2013-03-01 13:53:00,
2013-03-01 08:58:00,42.1,37.6,29.78,NW,313,15.0,16.0,84,0.00,,,0.00,Wunderground v.1.15,2013-03-01 13:58:00,
2013-03-01 09:03:00,42.1,37.3,29.78,NW,316,12.0,17.0,83,0.00,,,0.00,Wunderground v.1.15,2013-03-01 14:03:00,
2013-03-01 09:08:00,42.0,37.2,29.78,NW,319,14.0,18.0,83,0.00,,,0.00,Wunderground v.1.15,2013-03-01 14:08:00,
2013-03-01 09:13:00,42.0,37.5,29.78,NW,321,16.0,17.0,84,0.00,,,0.00,Wunderground v.1.15,2013-03-01 14:13:00,
2013-03-01 09:18:00,41.9,37.1,29.78,NW,319,16.0,18.0,83,0.00,,,0.00,Wunderground v.1.15,2013-03-01 14:18:00,
2013-03-01 09:23:00,42.0,37.5,29.78,NW,314,15.0,18.0,84,0.00,,,0.00,Wunderground v.1.15,2013-03-01 14:23:00,
2013-03-01 09:28:00,42.0,37.5,29.78,NW,315,14.0,18.0,84,0.00,,,0.00,Wunderground v.1.15,2013-03-01 14:28:00,
2013-03-01 09:33:00,42.0,37.5,29.78,NW,311,12.0,16.0,84,0.00,,,0.00,Wunderground v.1.15,2013-03-01 14:33:00,
2013-03-01 09:38:00,42.0,37.5,29.78,NW,319,12.0,16.0,84,0.00,,,0.00,Wunderground v.1.15,2013-03-01 14:38:00,
2013-03-01 09:43:00,42.0,37.5,29.78,NW,319,13.0,15.0,84,0.00,,,0.00,Wunderground v.1.15,2013-03-01 14:43:00,
2013-03-01 09:48:00,41.9,37.7,29.78,NW,313,14.0,16.0,85,0.00,,,0.00,Wunderground v.1.15,2013-03-01 14:48:00,
2013-03-01 09:53:00,41.9,37.7,29.78,NW,314,13.0,15.0,85,0.00,,,0.00,Wunderground v.1.15,2013-03-01 14:53:00,
2013-03-01 09:58:00,42.0,37.8,29.78,NW,314,14.0,15.0,85,0.00,,,0.00,Wunderground v.1.15,2013-03-01 14:58:00,
2013-03-01 10:03:00,42.0,37.5,29.78,NW,321,12.0,15.0,84,0.00,,,0.00,Wunderground v.1.15,2013-03-01 15:03:00,
2013-03-01 10:08:00,42.2,38.0,29.78,NW,318,12.0,15.0,85,0.00,,,0.00,Wunderground v.1.15,2013-03-01 15:08:00,
2013-03-01 10:13:00,42.2,37.7,29.78,NW,313,12.0,13.0,84,0.00,,,0.00,Wunderground v.1.15,2013-03-01 15:13:00,
2013-03-01 10:18:00,42.2,37.7,29.78,NW,317,14.0,15.0,84,0.00,,,0.00,Wunderground v.1.15,2013-03-01 15:18:00,
2013-03-01 10:23:00,42.3,37.5,29.78,NW,317,12.0,14.0,83,0.00,,,0.00,Wunderground v.1.15,2013-03-01 15:23:00,
2013-03-01 10:28:00,42.4,37.6,29.78,NW,315,13.0,14.0,83,0.00,,,0.00,Wunderground v.1.15,2013-03-01 15:28:00,
2013-03-01 10:33:00,42.5,37.7,29.78,NW,321,14.0,14.0,83,0.00,,,0.00,Wunderground v.1.15,2013-03-01 15:33:00,
2013-03-01 10:38:00,42.4,37.6,29.78,NW,321,11.0,14.0,83,0.00,,,0.00,Wunderground v.1.15,2013-03-01 15:38:00,
2013-03-01 10:43:00,42.4,37.9,29.78,NW,315,10.0,12.0,84,0.00,,,0.00,Wunderground v.1.15,2013-03-01 15:43:00,
2013-03-01 10:48:00,42.5,38.0,29.78,NW,322,11.0,12.0,84,0.00,,,0.00,Wunderground v.1.15,2013-03-01 15:48:00,
2013-03-01 10:54:00,42.5,37.7,29.78,NW,315,10.0,11.0,83,0.00,,,0.00,Wunderground v.1.15,2013-03-01 15:54:00,
2013-03-01 10:59:00,42.5,38.0,29.78,NW,319,9.0,11.0,84,0.00,,,0.00,Wunderground v.1.15,2013-03-01 15:59:00,
2013-03-01 11:04:00,42.5,37.7,29.78,NW,317,8.0,10.0,83,0.00,,,0.00,Wunderground v.1.15,2013-03-01 16:04:00,
2013-03-01 11:09:00,42.5,38.0,29.78,NW,315,6.0,10.0,84,0.00,,,0.00,Wunderground v.1.15,2013-03-01 16:09:00,
2013-03-01 11:14:00,42.5,38.0,29.78,NW,317,6.0,8.0,84,0.00,,,0.00,Wunderground v.1.15,2013-03-01 16:14:00,
2013-03-01 11:19:00,42.5,38.0,29.79,NW,318,6.0,8.0,84,0.00,,,0.00,Wunderground v.1.15,2013-03-01 16:19:00,
2013-03-01 11:24:00,42.5,38.0,29.79,NW,318,4.0,6.0,84,0.00,,,0.00,Wunderground v.1.15,2013-03-01 16:24:00,
2013-03-01 11:29:00,42.5,38.0,29.78,NW,315,6.0,7.0,84,0.00,,,0.00,Wunderground v.1.15,2013-03-01 16:29:00,
2013-03-01 11:34:00,42.5,37.7,29.78,NW,318,5.0,7.0,83,0.00,,,0.00,Wunderground v.1.15,2013-03-01 16:34:00,
2013-03-01 11:39:00,42.5,38.0,29.78,NW,319,5.0,7.0,84,0.00,,,0.00,Wunderground v.1.15,2013-03-01 16:39:00,
2013-03-01 11:44:00,42.4,37.9,29.78,NW,312,6.0,7.0,84,0.00,,,0.00,Wunderground v.1.15,2013-03-01 16:44:00,
2013-03-01 11:49:00,42.3,37.5,29.78,WNW,302,4.0,9.0,83,0.00,,,0.00,Wunderground v.1.15,2013-03-01 16:49:00,
2013-03-01 11:54:00,42.4,37.9,29.78,WNW,295,9.0,10.0,84,0.00,,,0.00,Wunderground v.1.15,2013-03-01 16:54:00,
2013-03-01 11:59:00,42.4,37.9,29.78,NW,305,9.0,12.0,84,0.00,,,0.00,Wunderground v.1.15,2013-03-01 16:59:00,
2013-03-01 12:05:00,42.4,37.9,29.78,WNW,300,12.0,12.0,84,0.00,,,0.00,Wunderground v.1.15,2013-03-01 17:05:00,
2013-03-01 12:10:00,42.5,37.7,29.78,WNW,296,11.0,11.0,83,0.00,,,0.00,Wunderground v.1.15,2013-03-01 17:10:00,
2013-03-01 12:15:00,42.5,37.7,29.78,WNW,302,10.0,13.0,83,0.00,,,0.00,Wunderground v.1.15,2013-03-01 17:15:00,
2013-03-01 12:20:00,42.6,37.8,29.78,WNW,302,11.0,11.0,83,0.00,,,0.00,Wunderground v.1.15,2013-03-01 17:20:00,
2013-03-01 12:25:00,42.6,37.5,29.78,NW,309,11.0,13.0,82,0.00,,,0.00,Wunderground v.1.15,2013-03-01 17:25:00,
2013-03-01 12:30:00,42.7,37.6,29.78,WNW,301,9.0,13.0,82,0.00,,,0.00,Wunderground v.1.15,2013-03-01 17:30:00,
2013-03-01 12:35:00,42.7,37.6,29.78,WNW,302,9.0,11.0,82,0.00,,,0.00,Wunderground v.1.15,2013-03-01 17:35:00,
2013-03-01 12:40:00,42.7,37.9,29.78,NW,304,7.0,9.0,83,0.00,,,0.00,Wunderground v.1.15,2013-03-01 17:40:00,
2013-03-01 12:45:00,42.7,38.2,29.78,WNW,302,6.0,9.0,84,0.00,,,0.00,Wunderground v.1.15,2013-03-01 17:45:00,
2013-03-01 12:50:00,42.6,38.1,29.78,NW,304,9.0,10.0,84,0.00,,,0.00,Wunderground v.1.15,2013-03-01 17:50:00,
2013-03-01 12:55:00,42.5,37.7,29.77,WNW,303,9.0,11.0,83,0.00,,,0.00,Wunderground v.1.15,2013-03-01 17:55:00,
2013-03-01 13:00:00,42.6,37.8,29.77,NW,309,8.0,10.0,83,0.00,,,0.00,Wunderground v.1.15,2013-03-01 18:00:00,
2013-03-01 13:05:00,42.7,38.2,29.77,NW,313,6.0,11.0,84,0.00,,,0.00,Wunderground v.1.15,2013-03-01 18:05:00,
2013-03-01 13:10:00,42.7,38.5,29.77,NW,309,7.0,7.0,85,0.00,,,0.00,Wunderground v.1.15,2013-03-01 18:10:00,
2013-03-01 13:15:00,42.6,38.4,29.77,NW,315,8.0,10.0,85,0.00,,,0.00,Wunderground v.1.15,2013-03-01 18:15:00,
2013-03-01 13:20:00,42.5,38.0,29.77,NW,318,10.0,10.0,84,0.00,,,0.00,Wunderground v.1.15,2013-03-01 18:20:00,
2013-03-01 13:25:00,42.5,37.7,29.77,NW,319,7.0,11.0,83,0.00,,,0.00,Wunderground v.1.15,2013-03-01 18:25:00,
2013-03-01 13:30:00,42.6,38.1,29.77,NW,309,9.0,9.0,84,0.00,,,0.00,Wunderground v.1.15,2013-03-01 18:30:00,
2013-03-01 13:35:00,42.7,38.2,29.77,NW,319,9.0,10.0,84,0.00,,,0.00,Wunderground v.1.15,2013-03-01 18:35:00,
2013-03-01 13:40:00,42.6,37.8,29.77,NNW,327,11.0,11.0,83,0.00,,,0.00,Wunderground v.1.15,2013-03-01 18:40:00,
2013-03-01 13:45:00,42.7,37.9,29.76,NW,319,10.0,13.0,83,0.00,,,0.00,Wunderground v.1.15,2013-03-01 18:45:00,
2013-03-01 13:50:00,42.6,37.8,29.77,NW,322,13.0,13.0,83,0.00,,,0.00,Wunderground v.1.15,2013-03-01 18:50:00,
2013-03-01 13:55:00,42.6,37.8,29.76,NNW,332,12.0,13.0,83,0.00,,,0.00,Wunderground v.1.15,2013-03-01 18:55:00,
2013-03-01 14:00:00,42.7,37.3,29.76,NW,323,11.0,11.0,81,0.00,,,0.00,Wunderground v.1.15,2013-03-01 19:00:00,
2013-03-01 14:05:00,42.7,37.6,29.76,NW,321,10.0,14.0,82,0.00,,,0.00,Wunderground v.1.15,2013-03-01 19:05:00,
2013-03-01 14:10:00,42.7,37.6,29.76,NW,325,12.0,13.0,82,0.00,,,0.00,Wunderground v.1.15,2013-03-01 19:10:00,
2013-03-01 14:15:00,42.7,37.3,29.76,NW,321,12.0,14.0,81,0.00,,,0.00,Wunderground v.1.15,2013-03-01 19:15:00,
2013-03-01 14:21:00,42.7,37.0,29.76,NW,326,13.0,13.0,80,0.00,,,0.00,Wunderground v.1.15,2013-03-01 19:21:00,
2013-03-01 14:26:00,42.8,37.1,29.76,NW,326,14.0,15.0,80,0.00,,,0.00,Wunderground v.1.15,2013-03-01 19:26:00,
2013-03-01 14:31:00,42.8,37.4,29.76,NNW,327,12.0,13.0,81,0.00,,,0.00,Wunderground v.1.15,2013-03-01 19:31:00,
2013-03-01 14:36:00,42.8,37.4,29.76,NW,320,11.0,13.0,81,0.00,,,0.00,Wunderground v.1.15,2013-03-01 19:36:00,
2013-03-01 14:41:00,42.8,37.7,29.76,NW,321,10.0,12.0,82,0.00,,,0.00,Wunderground v.1.15,2013-03-01 19:41:00,
2013-03-01 14:46:00,42.8,37.7,29.77,NW,314,10.0,13.0,82,0.00,,,0.00,Wunderground v.1.15,2013-03-01 19:46:00,
2013-03-01 14:51:00,42.7,37.9,29.77,NW,315,12.0,12.0,83,0.00,,,0.00,Wunderground v.1.15,2013-03-01 19:51:00,
2013-03-01 14:56:00,42.6,37.5,29.77,NW,309,12.0,12.0,82,0.00,,,0.00,Wunderground v.1.15,2013-03-01 19:56:00,
2013-03-01 15:01:00,42.6,37.5,29.77,NW,318,12.0,13.0,82,0.00,,,0.00,Wunderground v.1.15,2013-03-01 20:01:00,
2013-03-01 15:06:00,42.6,37.5,29.77,NW,318,12.0,15.0,82,0.00,,,0.00,Wunderground v.1.15,2013-03-01 20:06:00,
2013-03-01 15:11:00,42.5,37.4,29.76,NW,316,12.0,14.0,82,0.00,,,0.00,Wunderground v.1.15,2013-03-01 20:11:00,
2013-03-01 15:16:00,42.5,37.1,29.76,NW,318,10.0,14.0,81,0.00,,,0.00,Wunderground v.1.15,2013-03-01 20:16:00,
2013-03-01 15:21:00,42.5,37.1,29.76,NNW,327,11.0,14.0,81,0.00,,,0.00,Wunderground v.1.15,2013-03-01 20:21:00,
2013-03-01 15:26:00,42.5,37.4,29.76,NNW,331,10.0,14.0,82,0.00,,,0.00,Wunderground v.1.15,2013-03-01 20:26:00,
2013-03-01 15:31:00,42.5,37.4,29.76,NW,326,11.0,13.0,82,0.00,,,0.00,Wunderground v.1.15,2013-03-01 20:31:00,
2013-03-01 15:36:00,42.5,37.4,29.76,NW,321,11.0,14.0,82,0.00,,,0.00,Wunderground v.1.15,2013-03-01 20:36:00,
2013-03-01 15:41:00,42.5,37.4,29.76,NW,321,10.0,12.0,82,0.00,,,0.00,Wunderground v.1.15,2013-03-01 20:41:00,
2013-03-01 15:46:00,42.5,37.4,29.76,NNW,330,11.0,12.0,82,0.00,,,0.00,Wunderground v.1.15,2013-03-01 20:46:00,
2013-03-01 15:51:00,42.6,37.2,29.76,NNW,329,12.0,12.0,81,0.00,,,0.00,Wunderground v.1.15,2013-03-01 20:51:00,
2013-03-01 15:56:00,42.6,37.2,29.76,NNW,330,11.0,13.0,81,0.00,,,0.00,Wunderground v.1.15,2013-03-01 20:56:00,
2013-03-01 16:01:00,42.7,37.3,29.76,NNW,331,12.0,12.0,81,0.00,,,0.00,Wunderground v.1.15,2013-03-01 21:01:00,
2013-03-01 16:06:00,42.7,37.3,29.76,NNW,331,10.0,12.0,81,0.00,,,0.00,Wunderground v.1.15,2013-03-01 21:06:00,
2013-03-01 16:11:00,42.6,37.2,29.77,NNW,336,7.0,10.0,81,0.00,,,0.00,Wunderground v.1.15,2013-03-01 21:11:00,
2013-03-01 16:16:00,42.6,37.5,29.77,NNW,331,7.0,10.0,82,0.00,,,0.00,Wunderground v.1.15,2013-03-01 21:16:00,
2013-03-01 16:21:00,42.6,37.2,29.77,NNW,337,6.0,10.0,81,0.00,,,0.00,Wunderground v.1.15,2013-03-01 21:21:00,
2013-03-01 16:26:00,42.6,37.2,29.77,NNW,333,7.0,10.0,81,0.00,,,0.00,Wunderground v.1.15,2013-03-01 21:26:00,
2013-03-01 16:31:00,42.6,37.5,29.77,NNW,333,5.0,7.0,82,0.00,,,0.00,Wunderground v.1.15,2013-03-01 21:31:00,
2013-03-01 16:36:00,42.6,37.8,29.77,NNW,335,6.0,8.0,83,0.00,,,0.00,Wunderground v.1.15,2013-03-01 21:36:00,
2013-03-01 16:41:00,42.5,37.7,29.77,NNW,336,5.0,7.0,83,0.00,,,0.00,Wunderground v.1.15,2013-03-01 21:41:00,
2013-03-01 16:47:00,42.5,37.7,29.77,NNW,330,6.0,8.0,83,0.00,,,0.00,Wunderground v.1.15,2013-03-01 21:47:00,
2013-03-01 16:52:00,42.4,37.6,29.77,NNW,329,9.0,9.0,83,0.00,,,0.00,Wunderground v.1.15,2013-03-01 21:52:00,
2013-03-01 16:57:00,42.4,37.3,29.77,NW,318,7.0,10.0,82,0.00,,,0.00,Wunderground v.1.15,2013-03-01 21:57:00,
2013-03-01 17:02:00,42.5,37.4,29.77,NW,317,10.0,11.0,82,0.00,,,0.00,Wunderground v.1.15,2013-03-01 22:02:00,
2013-03-01 17:07:00,42.5,37.4,29.77,NW,319,11.0,12.0,82,0.00,,,0.00,Wunderground v.1.15,2013-03-01 22:07:00,
2013-03-01 17:12:00,42.6,37.2,29.78,NW,313,12.0,14.0,81,0.00,,,0.00,Wunderground v.1.15,2013-03-01 22:12:00,
2013-03-01 17:17:00,42.7,37.3,29.78,NW,321,12.0,14.0,81,0.00,,,0.00,Wunderground v.1.15,2013-03-01 22:17:00,
2013-03-01 17:22:00,42.7,37.0,29.78,NW,318,12.0,14.0,80,0.00,,,0.00,Wunderground v.1.15,2013-03-01 22:22:00,
2013-03-01 17:27:00,42.8,37.4,29.78,NW,309,10.0,14.0,81,0.00,,,0.00,Wunderground v.1.15,2013-03-01 22:27:00,
2013-03-01 17:32:00,42.7,37.3,29.78,NW,308,10.0,12.0,81,0.00,,,0.00,Wunderground v.1.15,2013-03-01 22:32:00,
2013-03-01 17:37:00,42.7,37.3,29.78,NW,308,11.0,12.0,81,0.00,,,0.00,Wunderground v.1.15,2013-03-01 22:37:00,
2013-03-01 17:42:00,42.6,37.2,29.78,WNW,302,11.0,13.0,81,0.00,,,0.00,Wunderground v.1.15,2013-03-01 22:42:00,
2013-03-01 17:47:00,42.6,36.9,29.79,NW,309,11.0,13.0,80,0.00,,,0.00,Wunderground v.1.15,2013-03-01 22:47:00,
2013-03-01 17:52:00,42.6,37.2,29.79,NW,306,10.0,13.0,81,0.00,,,0.00,Wunderground v.1.15,2013-03-01 22:52:00,
2013-03-01 17:57:00,42.6,37.2,29.79,NW,307,13.0,14.0,81,0.00,,,0.00,Wunderground v.1.15,2013-03-01 22:57:00,
2013-03-01 18:02:00,42.6,37.2,29.79,NW,309,12.0,14.0,81,0.00,,,0.00,Wunderground v.1.15,2013-03-01 23:02:00,
2013-03-01 18:07:00,42.6,37.2,29.79,NW,306,12.0,15.0,81,0.00,,,0.00,Wunderground v.1.15,2013-03-01 23:07:00,
2013-03-01 18:12:00,42.5,37.1,29.79,WNW,303,14.0,17.0,81,0.00,,,0.00,Wunderground v.1.15,2013-03-01 23:12:00,
2013-03-01 18:17:00,42.5,36.8,29.80,NW,305,12.0,17.0,80,0.00,,,0.00,Wunderground v.1.15,2013-03-01 23:17:00,
2013-03-01 18:23:00,42.5,36.4,29.79,NW,309,12.0,15.0,79,0.00,,,0.00,Wunderground v.1.15,2013-03-01 23:23:00,
2013-03-01 18:28:00,42.5,36.8,29.80,NW,306,13.0,15.0,80,0.00,,,0.00,Wunderground v.1.15,2013-03-01 23:28:00,
2013-03-01 18:33:00,42.5,36.8,29.80,NW,306,12.0,15.0,80,0.00,,,0.00,Wunderground v.1.15,2013-03-01 23:33:00,
2013-03-01 18:38:00,42.4,36.7,29.80,NW,304,12.0,15.0,80,0.00,,,0.00,Wunderground v.1.15,2013-03-01 23:38:00,
2013-03-01 18:43:00,42.4,36.7,29.80,NW,314,12.0,13.0,80,0.00,,,0.00,Wunderground v.1.15,2013-03-01 23:43:00,
2013-03-01 18:48:00,42.4,37.0,29.80,NW,310,10.0,13.0,81,0.00,,,0.00,Wunderground v.1.15,2013-03-01 23:48:00,
2013-03-01 18:53:00,42.3,37.2,29.80,NW,306,11.0,13.0,82,0.00,,,0.00,Wunderground v.1.15,2013-03-01 23:53:00,
2013-03-01 18:58:00,42.2,36.5,29.80,NW,319,11.0,16.0,80,0.00,,,0.00,Wunderground v.1.15,2013-03-01 23:58:00,
2013-03-01 19:03:00,42.3,36.3,29.80,NW,315,13.0,16.0,79,0.00,,,0.00,Wunderground v.1.15,2013-03-02 00:03:00,
2013-03-01 19:08:00,42.3,36.3,29.80,NW,325,12.0,16.0,79,0.00,,,0.00,Wunderground v.1.15,2013-03-02 00:08:00,
2013-03-01 19:13:00,42.4,36.3,29.81,NW,323,12.0,14.0,79,0.00,,,0.00,Wunderground v.1.15,2013-03-02 00:13:00,
2013-03-01 19:18:00,42.4,36.3,29.81,NW,321,14.0,15.0,79,0.00,,,0.00,Wunderground v.1.15,2013-03-02 00:18:00,
2013-03-01 19:23:00,42.3,36.3,29.81,NW,311,13.0,15.0,79,0.00,,,0.00,Wunderground v.1.15,2013-03-02 00:23:00,
2013-03-01 19:28:00,42.2,35.8,29.81,NW,316,12.0,17.0,78,0.00,,,0.00,Wunderground v.1.15,2013-03-02 00:28:00,
2013-03-01 19:33:00,42.2,35.8,29.81,NW,319,13.0,17.0,78,0.00,,,0.00,Wunderground v.1.15,2013-03-02 00:33:00,
2013-03-01 19:38:00,42.2,36.2,29.81,NW,318,12.0,17.0,79,0.00,,,0.00,Wunderground v.1.15,2013-03-02 00:38:00,
2013-03-01 19:43:00,42.1,36.1,29.81,NW,315,14.0,17.0,79,0.00,,,0.00,Wunderground v.1.15,2013-03-02 00:43:00,
2013-03-01 19:48:00,42.2,35.8,29.81,NW,326,14.0,18.0,78,0.00,,,0.00,Wunderground v.1.15,2013-03-02 00:48:00,
2013-03-01 19:53:00,42.1,36.1,29.81,NW,319,12.0,15.0,79,0.00,,,0.00,Wunderground v.1.15,2013-03-02 00:53:00,
2013-03-01 19:58:00,42.1,36.1,29.82,NW,313,11.0,15.0,79,0.00,,,0.00,Wunderground v.1.15,2013-03-02 00:58:00,
2013-03-01 20:03:00,42.0,36.0,29.82,NW,311,13.0,15.0,79,0.00,,,0.00,Wunderground v.1.15,2013-03-02 01:03:00,
2013-03-01 20:08:00,42.1,35.7,29.82,NW,311,13.0,16.0,78,0.00,,,0.00,Wunderground v.1.15,2013-03-02 01:08:00,
2013-03-01 20:13:00,42.0,36.0,29.82,NW,311,14.0,16.0,79,0.00,,,0.00,Wunderground v.1.15,2013-03-02 01:13:00,
2013-03-01 20:18:00,42.0,36.0,29.82,NW,316,13.0,16.0,79,0.00,,,0.00,Wunderground v.1.15,2013-03-02 01:18:00,
2013-03-01 20:23:00,42.0,36.0,29.82,NW,307,13.0,15.0,79,0.00,,,0.00,Wunderground v.1.15,2013-03-02 01:23:00,
2013-03-01 20:28:00,42.0,36.0,29.83,NW,313,12.0,15.0,79,0.00,,,0.00,Wunderground v.1.15,2013-03-02 01:28:00,
2013-03-01 20:33:00,42.0,36.0,29.83,NW,310,12.0,15.0,79,0.00,,,0.00,Wunderground v.1.15,2013-03-02 01:33:00,
2013-03-01 20:38:00,41.9,35.9,29.83,NW,304,14.0,16.0,79,0.00,,,0.00,Wunderground v.1.15,2013-03-02 01:38:00,
2013-03-01 20:43:00,41.9,35.9,29.83,NW,313,14.0,16.0,79,0.00,,,0.00,Wunderground v.1.15,2013-03-02 01:43:00,
2013-03-01 20:48:00,41.9,35.9,29.83,NW,317,15.0,16.0,79,0.00,,,0.00,Wunderground v.1.15,2013-03-02 01:48:00,
2013-03-01 20:53:00,41.9,36.2,29.83,NW,317,12.0,13.0,80,0.00,,,0.00,Wunderground v.1.15,2013-03-02 01:53:00,
2013-03-01 20:58:00,41.8,36.1,29.83,NW,313,12.0,15.0,80,0.00,,,0.00,Wunderground v.1.15,2013-03-02 01:58:00,
2013-03-01 21:03:00,41.8,36.4,29.84,NW,321,13.0,15.0,81,0.00,,,0.00,Wunderground v.1.15,2013-03-02 02:03:00,
2013-03-01 21:08:00,41.8,36.1,29.83,NW,317,11.0,15.0,80,0.00,,,0.00,Wunderground v.1.15,2013-03-02 02:08:00,
2013-03-01 21:13:00,41.7,36.3,29.84,NW,314,11.0,14.0,81,0.00,,,0.00,Wunderground v.1.15,2013-03-02 02:13:00,
2013-03-01 21:18:00,41.7,36.3,29.84,NW,318,11.0,14.0,81,0.00,,,0.00,Wunderground v.1.15,2013-03-02 02:18:00,
2013-03-01 21:23:00,41.7,36.3,29.84,NW,321,12.0,14.0,81,0.00,,,0.00,Wunderground v.1.15,2013-03-02 02:23:00,
2013-03-01 21:28:00,41.6,36.2,29.83,NW,319,14.0,16.0,81,0.00,,,0.00,Wunderground v.1.15,2013-03-02 02:28:00,
2013-03-01 21:33:00,41.6,36.2,29.84,NNW,332,14.0,15.0,81,0.00,,,0.00,Wunderground v.1.15,2013-03-02 02:33:00,
2013-03-01 21:39:00,41.6,36.2,29.84,NW,321,15.0,17.0,81,0.00,,,0.00,Wunderground v.1.15,2013-03-02 02:39:00,
2013-03-01 21:44:00,41.6,36.2,29.84,NNW,328,12.0,16.0,81,0.00,,,0.00,Wunderground v.1.15,2013-03-02 02:44:00,
2013-03-01 21:49:00,41.6,35.9,29.84,NNW,327,16.0,17.0,80,0.00,,,0.00,Wunderground v.1.15,2013-03-02 02:49:00,
2013-03-01 21:54:00,41.6,35.9,29.84,NW,322,12.0,15.0,80,0.00,,,0.00,Wunderground v.1.15,2013-03-02 02:54:00,
2013-03-01 21:59:00,41.6,35.6,29.84,NNW,329,15.0,17.0,79,0.00,,,0.00,Wunderground v.1.15,2013-03-02 02:59:00,
2013-03-01 22:04:00,41.6,35.9,29.84,NNW,328,12.0,15.0,80,0.00,,,0.00,Wunderground v.1.15,2013-03-02 03:04:00,
2013-03-01 22:09:00,41.5,36.1,29.84,NW,315,15.0,16.0,81,0.00,,,0.00,Wunderground v.1.15,2013-03-02 03:09:00,
2013-03-01 22:14:00,41.4,35.4,29.84,NW,320,13.0,17.0,79,0.00,,,0.00,Wunderground v.1.15,2013-03-02 03:14:00,
2013-03-01 22:19:00,41.3,35.6,29.84,NW,315,17.0,18.0,80,0.00,,,0.00,Wunderground v.1.15,2013-03-02 03:19:00,
2013-03-01 22:24:00,41.2,35.2,29.84,NW,314,14.0,17.0,79,0.00,,,0.00,Wunderground v.1.15,2013-03-02 03:24:00,
2013-03-01 22:29:00,41.2,35.2,29.84,NW,321,13.0,17.0,79,0.00,,,0.00,Wunderground v.1.15,2013-03-02 03:29:00,
2013-03-01 22:34:00,41.3,35.3,29.84,NW,317,15.0,17.0,79,0.00,,,0.00,Wunderground v.1.15,2013-03-02 03:34:00,
2013-03-01 22:39:00,41.1,35.1,29.84,NW,314,16.0,18.0,79,0.00,,,0.00,Wunderground v.1.15,2013-03-02 03:39:00,
2013-03-01 22:44:00,41.1,34.8,29.84,NNW,327,17.0,18.0,78,0.00,,,0.00,Wunderground v.1.15,2013-03-02 03:44:00,
2013-03-01 22:49:00,41.0,34.7,29.83,NW,317,15.0,18.0,78,0.00,,,0.00,Wunderground v.1.15,2013-03-02 03:49:00,
2013-03-01 22:54:00,41.0,34.7,29.83,NNW,329,16.0,19.0,78,0.00,,,0.00,Wunderground v.1.15,2013-03-02 03:54:00,
2013-03-01 22:59:00,41.0,34.7,29.84,NNW,327,16.0,19.0,78,0.00,,,0.00,Wunderground v.1.15,2013-03-02 03:59:00,
2013-03-01 23:04:00,41.0,36.2,29.84,NW,323,16.0,17.0,83,0.00,,,0.00,Wunderground v.1.15,2013-03-02 04:04:00,
2013-03-01 23:09:00,40.9,34.6,29.84,NW,325,16.0,18.0,78,0.00,,,0.00,Wunderground v.1.15,2013-03-02 04:09:00,
2013-03-01 23:14:00,40.8,34.5,29.84,NW,325,18.0,21.0,78,0.00,,,0.00,Wunderground v.1.15,2013-03-02 04:14:00,
2013-03-01 23:19:00,40.8,34.1,29.83,NNW,327,17.0,21.0,77,0.00,,,0.00,Wunderground v.1.15,2013-03-02 04:19:00,
2013-03-01 23:24:00,40.7,34.0,29.84,NNW,334,15.0,20.0,77,0.00,,,0.00,Wunderground v.1.15,2013-03-02 04:24:00,
2013-03-01 23:29:00,40.7,33.7,29.84,NNW,331,15.0,21.0,76,0.00,,,0.00,Wunderground v.1.15,2013-03-02 04:29:00,
2013-03-01 23:34:00,40.7,33.7,29.84,NW,325,13.0,18.0,76,0.00,,,0.00,Wunderground v.1.15,2013-03-02 04:34:00,
2013-03-01 23:39:00,40.7,34.7,29.84,NNW,327,15.0,18.0,79,0.00,,,0.00,Wunderground v.1.15,2013-03-02 04:39:00,
2013-03-01 23:44:00,40.6,34.3,29.84,NNW,327,15.0,18.0,78,0.00,,,0.00,Wunderground v.1.15,2013-03-02 04:44:00,
2013-03-01 23:49:00,40.5,33.9,29.84,NW,321,20.0,21.0,77,0.00,,,0.00,Wunderground v.1.15,2013-03-02 04:49:00,
2013-03-01 23:54:00,40.5,33.5,29.84,NNW,327,16.0,20.0,76,0.00,,,0.00,Wunderground v.1.15,2013-03-02 04:54:00,
2013-03-01 23:59:00,40.4,33.4,29.84,NNW,334,16.0,20.0,76,0.00,,,0.00,Wunderground v.1.15,2013-03-02 04:59:00,